Location: Seattle
(47.6064°N, 122.3308°W)
Time: 09:08:22
(UTC-07:00)

ISS - Pass Details

Date: 20 April 2026
Orbit: 414 x 424 km, 51.6° (Epoch: 14 May)

Event Time Altitude Azimuth Distance (km) Brightness Sun altitude
Exits shadow 04:12:37 11° 149° (SSE) 1,450 -1.1 -18.0°
Maximum altitude 04:13:30 12° 133° (SE) 1,402 -1.1 -17.9°
Drops below altitude 10° 04:14:44 10° 112° (ESE) 1,499 -0.6 -17.8°
Sets 04:17:59 0° 78° (ENE) 2,372 1.2 -17.3°
